sat.trackr.live / text

‹ back to catalog

STARLINK-3083

NORAD 49158 · 2021-082AE

PAYLOAD ACTIVE UNKNOWN

§ Identity

Operator
Country
US
Launch date
2021-09-14
Launch site
AFWTR
Launch vehicle
Mass (kg)
RCS (m²)

Purposes: comms

External: N2YO · Heavens-Above · Gunter

§ Orbital elements

Epoch: 2026-05-25T04:38:10.295808Z

Period
91.50 min
Inclination
69.9641°
Eccentricity
0.0002995
Mean motion
15.73705302 rev/d
Perigee alt
346.3 km
Apogee alt
350.3 km
Semi-major
6,726.5 km
B*
5.1282e-4
RAAN
318.3957°
Arg perigee
197.4938°
Mean anomaly
162.6157°
Rev number
26,205

§ Raw data

STARLINK-30831 49158U 21082AE  26145.19317472  .00072690  00000+0  51282-3 0  99962 49158  69.9641 318.3957 0002995 197.4938 162.6157 15.73705302262052

JSON: /api/v1/satellites/49158 · /tle

For live sub-satellite position, see the globe view (requires WebGL).

§ Visibility from observer

Set your observer location to see the next 7 days of passes ≥ 10°. The values pass through the URL so the page stays shareable.

No JS? Fill the form by hand. The geolocation button needs JavaScript.